BTR5908 GMFF-LFTW

Flight info

Callsign BTR5908
Flight time N/A
Altitude 36000
Route BOKPA UG850 BERUM DCT GONZA N860 BEGOX DCT LASPO DCT SOPET DCT DIKUT DCT TORDU DCT LOTOS DCT EBROX DCT PEXOT DCT RODRA DCT BCN DCT FEVIK DCT DALIN DCT PIVUS DCT DIBER DCT SOSUR Z16 IDELO Z154 BULTO Y341 SALIN Y25 MARRI
Aircraft B738/M-SDE2E3FGHIRWXY/LB1

Departure

Time N/A
Airport Fes Saïss International Airport (GMFF)

Arrival

Time 2026-04-15 08:15
Airport Nîmes-Arles-Camargue Airport (LFTW)
Time Latitude Longitude Altitude Speed Heading
2026-04-15 06:31 36.23075 -2.68233 36191 ft 447 kts 36°
2026-04-15 06:31 36.27746 -2.63234 36190 ft 446 kts 36°
2026-04-15 06:32 36.32439 -2.58205 36191 ft 445 kts 36°
2026-04-15 06:32 36.37119 -2.53180 36190 ft 444 kts 36°
2026-04-15 06:33 36.41781 -2.48167 36190 ft 443 kts 36°
2026-04-15 06:33 36.46429 -2.43161 36191 ft 441 kts 36°
2026-04-15 06:34 36.51058 -2.38167 36189 ft 440 kts 36°
2026-04-15 06:34 36.55668 -2.33186 36188 ft 439 kts 36°
2026-04-15 06:35 36.60270 -2.28205 36185 ft 438 kts 36°
2026-04-15 06:35 36.64854 -2.23236 36189 ft 437 kts 36°
2026-04-15 06:36 36.69438 -2.18259 36187 ft 437 kts 36°
2026-04-15 06:36 36.72469 -2.14963 36188 ft 437 kts 36°
2026-04-15 06:37 36.75738 -2.11405 36196 ft 437 kts 36°
2026-04-15 06:37 36.80320 -2.06411 36194 ft 438 kts 36°
2026-04-15 06:38 36.84903 -2.01406 36200 ft 438 kts 36°
2026-04-15 06:38 36.89488 -1.96391 36187 ft 438 kts 36°
2026-04-15 06:39 36.94073 -1.91368 36212 ft 439 kts 36°
2026-04-15 06:39 36.96339 -1.88883 36352 ft 440 kts 36°
2026-04-15 06:39 36.98635 -1.86362 36616 ft 438 kts 36°
2026-04-15 06:39 37.00918 -1.83852 36899 ft 436 kts 36°
2026-04-15 06:40 37.03191 -1.81351 37148 ft 434 kts 36°
2026-04-15 06:40 37.05453 -1.78860 37341 ft 434 kts 36°
2026-04-15 06:40 37.07722 -1.76363 37499 ft 434 kts 36°
2026-04-15 06:40 37.09988 -1.73866 37680 ft 434 kts 37°
2026-04-15 06:41 37.12249 -1.71372 37893 ft 433 kts 36°
2026-04-15 06:41 37.14502 -1.68884 38089 ft 431 kts 37°
2026-04-15 06:41 37.16754 -1.66396 38182 ft 432 kts 37°
2026-04-15 06:42 37.21272 -1.61398 38195 ft 433 kts 37°
2026-04-15 06:42 37.25769 -1.56412 38186 ft 430 kts 37°
2026-04-15 06:43 37.30234 -1.51454 38191 ft 427 kts 37°
2026-04-15 06:43 37.34671 -1.46520 38188 ft 425 kts 37°
2026-04-15 06:44 37.39089 -1.41600 38189 ft 423 kts 37°
2026-04-15 06:44 37.43493 -1.36687 38189 ft 423 kts 37°
2026-04-15 06:45 37.47888 -1.31776 38192 ft 423 kts 37°
2026-04-15 06:45 37.52284 -1.26857 38189 ft 423 kts 37°
2026-04-15 06:46 37.56687 -1.21920 38192 ft 424 kts 37°
2026-04-15 06:46 37.61092 -1.16974 38202 ft 424 kts 37°
2026-04-15 06:47 37.64756 -1.12853 38200 ft 425 kts 37°
2026-04-15 06:47 37.69182 -1.07867 38199 ft 426 kts 37°
2026-04-15 06:48 37.73608 -1.02872 38189 ft 427 kts 37°
2026-04-15 06:48 37.78041 -0.97861 38189 ft 428 kts 37°
2026-04-15 06:49 37.82474 -0.92841 38184 ft 427 kts 37°
2026-04-15 06:49 37.86895 -0.87827 38180 ft 426 kts 37°
2026-04-15 06:50 37.93505 -0.80315 38189 ft 424 kts 37°
2026-04-15 06:50 37.97889 -0.75323 38186 ft 423 kts 37°
2026-04-15 06:51 38.02256 -0.70340 38183 ft 422 kts 37°
2026-04-15 06:51 38.06609 -0.65366 38183 ft 420 kts 37°
2026-04-15 06:52 38.10941 -0.60408 38186 ft 419 kts 37°
2026-04-15 06:52 38.15259 -0.55458 38185 ft 417 kts 37°
2026-04-15 06:53 38.19561 -0.50519 38186 ft 416 kts 37°
2026-04-15 06:53 38.23852 -0.45583 38184 ft 416 kts 37°
2026-04-15 06:54 38.28139 -0.40644 38187 ft 415 kts 37°
2026-04-15 06:54 38.32419 -0.35705 38186 ft 416 kts 37°
2026-04-15 06:55 38.36676 -0.30785 38184 ft 416 kts 37°
2026-04-15 06:55 38.40963 -0.25822 38188 ft 417 kts 37°
2026-04-15 06:56 38.45256 -0.20841 38187 ft 417 kts 37°
2026-04-15 06:56 38.49555 -0.15847 38188 ft 418 kts 37°
2026-04-15 06:57 38.53855 -0.10842 38194 ft 419 kts 37°
2026-04-15 06:57 38.58162 -0.05821 38205 ft 420 kts 37°
2026-04-15 06:58 38.62475 -0.00784 38195 ft 420 kts 37°
2026-04-15 06:58 38.66772 0.04243 38203 ft 418 kts 37°
2026-04-15 06:59 38.71057 0.09264 38190 ft 418 kts 37°
2026-04-15 06:59 38.75340 0.14292 38207 ft 417 kts 37°
2026-04-15 07:00 38.79612 0.19314 38187 ft 417 kts 37°
2026-04-15 07:00 38.83875 0.24335 38190 ft 416 kts 37°
2026-04-15 07:01 38.88126 0.29350 38191 ft 415 kts 37°
2026-04-15 07:01 38.92369 0.34364 38189 ft 414 kts 37°
2026-04-15 07:02 38.96596 0.39368 38190 ft 413 kts 37°
2026-04-15 07:02 39.00823 0.44379 38196 ft 413 kts 37°
2026-04-15 07:03 39.05034 0.49381 38189 ft 412 kts 37°
2026-04-15 07:03 39.09215 0.54355 38192 ft 412 kts 38°
2026-04-15 07:04 39.13423 0.59370 38184 ft 412 kts 38°
2026-04-15 07:04 39.17631 0.64394 38186 ft 412 kts 38°
2026-04-15 07:05 39.21836 0.69422 38192 ft 413 kts 38°
2026-04-15 07:05 39.26052 0.74472 38186 ft 414 kts 38°
2026-04-15 07:06 39.30269 0.79533 38186 ft 414 kts 38°
2026-04-15 07:06 39.34488 0.84605 38185 ft 415 kts 38°
2026-04-15 07:07 39.38714 0.89693 38192 ft 415 kts 38°
2026-04-15 07:07 39.42942 0.94794 38187 ft 416 kts 38°
2026-04-15 07:08 39.47173 0.99906 38189 ft 416 kts 38°
2026-04-15 07:08 39.51397 1.05019 38187 ft 416 kts 38°
2026-04-15 07:09 39.55619 1.10139 38186 ft 415 kts 38°
2026-04-15 07:09 39.59832 1.15258 38185 ft 415 kts 38°
2026-04-15 07:10 39.64012 1.20344 38183 ft 414 kts 38°
2026-04-15 07:10 39.68206 1.25457 38186 ft 413 kts 38°
2026-04-15 07:11 39.72391 1.30567 38186 ft 413 kts 38°
2026-04-15 07:11 39.76564 1.35672 38184 ft 412 kts 38°
2026-04-15 07:12 39.80730 1.40776 38184 ft 411 kts 38°
2026-04-15 07:12 39.84885 1.45877 38183 ft 410 kts 38°
2026-04-15 07:13 39.89026 1.50968 38184 ft 409 kts 38°
2026-04-15 07:13 39.93165 1.56067 38188 ft 409 kts 38°
2026-04-15 07:14 39.97290 1.61156 38186 ft 408 kts 38°
2026-04-15 07:14 40.01409 1.66248 38183 ft 408 kts 38°
2026-04-15 07:15 40.05524 1.71343 38184 ft 408 kts 38°
2026-04-15 07:15 40.09607 1.76408 38184 ft 407 kts 38°
2026-04-15 07:16 40.13710 1.81506 38181 ft 407 kts 38°
2026-04-15 07:16 40.17812 1.86612 38185 ft 407 kts 38°
2026-04-15 07:17 40.21910 1.91722 38186 ft 407 kts 39°
2026-04-15 07:17 40.26001 1.96833 38184 ft 407 kts 39°
2026-04-15 07:18 40.30091 2.01951 38185 ft 406 kts 39°
2026-04-15 07:18 40.34170 2.07064 38184 ft 406 kts 39°
2026-04-15 07:19 40.38247 2.12184 38184 ft 405 kts 39°
2026-04-15 07:19 40.42310 2.17296 38180 ft 405 kts 39°
2026-04-15 07:20 40.46370 2.22413 38181 ft 404 kts 39°
2026-04-15 07:20 40.50418 2.27523 38182 ft 403 kts 39°
2026-04-15 07:21 40.54462 2.32636 38185 ft 403 kts 39°
2026-04-15 07:21 40.58495 2.37746 38184 ft 402 kts 39°
2026-04-15 07:22 40.62518 2.42852 38183 ft 402 kts 39°
2026-04-15 07:22 40.66538 2.47962 38170 ft 401 kts 39°
2026-04-15 07:23 40.70552 2.53074 38176 ft 401 kts 39°
2026-04-15 07:23 40.74563 2.58191 38188 ft 401 kts 39°
2026-04-15 07:24 40.78567 2.63309 38178 ft 401 kts 39°
2026-04-15 07:24 40.82571 2.68435 38185 ft 401 kts 39°
2026-04-15 07:25 40.86576 2.73572 38180 ft 401 kts 39°
2026-04-15 07:25 40.90561 2.78690 38181 ft 402 kts 39°
2026-04-15 07:26 40.94565 2.83846 38190 ft 402 kts 39°
2026-04-15 07:26 40.98572 2.89016 38182 ft 402 kts 39°
2026-04-15 07:27 41.02580 2.94199 38189 ft 402 kts 39°
2026-04-15 07:27 41.06587 2.99381 38180 ft 402 kts 39°
2026-04-15 07:28 41.10590 3.04568 38181 ft 402 kts 39°
2026-04-15 07:28 41.14587 3.09760 38178 ft 402 kts 39°
2026-04-15 07:29 41.18577 3.14951 38180 ft 401 kts 39°
2026-04-15 07:29 41.22561 3.20145 38174 ft 401 kts 39°
2026-04-15 07:30 41.26209 3.24909 38175 ft 400 kts 39°
2026-04-15 07:30 41.30040 3.29920 38177 ft 399 kts 39°
2026-04-15 07:31 41.33991 3.35096 38174 ft 398 kts 39°
2026-04-15 07:31 41.37929 3.40266 38174 ft 397 kts 39°
2026-04-15 07:32 41.41854 3.45427 38172 ft 396 kts 39°
2026-04-15 07:32 41.45770 3.50586 38174 ft 396 kts 39°
2026-04-15 07:33 41.49680 3.55746 38180 ft 395 kts 39°
2026-04-15 07:33 41.53584 3.60907 38171 ft 395 kts 40°
2026-04-15 07:34 41.57486 3.66075 38175 ft 395 kts 40°
2026-04-15 07:34 41.61386 3.71250 38174 ft 396 kts 40°
2026-04-15 07:35 41.65288 3.76436 38166 ft 396 kts 40°
2026-04-15 07:35 41.69195 3.81638 38180 ft 396 kts 40°
2026-04-15 07:36 41.73105 3.86854 38166 ft 397 kts 40°
2026-04-15 07:36 41.77016 3.92082 38169 ft 397 kts 40°
2026-04-15 07:37 41.80928 3.97320 38167 ft 398 kts 40°
2026-04-15 07:37 41.84816 4.02536 38163 ft 398 kts 40°
2026-04-15 07:38 41.88735 4.07803 38160 ft 399 kts 40°
2026-04-15 07:38 41.92650 4.13074 38158 ft 399 kts 40°
2026-04-15 07:39 41.96567 4.18357 38154 ft 399 kts 40°
2026-04-15 07:39 42.00480 4.23644 38153 ft 399 kts 40°
2026-04-15 07:40 42.04391 4.28940 38154 ft 399 kts 40°
2026-04-15 07:40 42.08303 4.34245 38153 ft 399 kts 40°
2026-04-15 07:41 42.12211 4.39555 38148 ft 399 kts 40°
2026-04-15 07:41 42.16113 4.44867 38147 ft 399 kts 40°
2026-04-15 07:42 42.20012 4.50184 38146 ft 399 kts 40°
2026-04-15 07:42 42.23914 4.55515 38146 ft 399 kts 40°
2026-04-15 07:43 42.27814 4.60853 38142 ft 399 kts 40°
2026-04-15 07:43 42.31710 4.66195 38140 ft 399 kts 40°
2026-04-15 07:44 42.35606 4.71548 38140 ft 399 kts 40°
2026-04-15 07:44 42.39477 4.76875 38140 ft 400 kts 40°
2026-04-15 07:45 42.43372 4.82243 38136 ft 400 kts 40°
2026-04-15 07:45 42.47265 4.87615 38133 ft 400 kts 40°
2026-04-15 07:46 42.51159 4.93006 38134 ft 400 kts 40°
2026-04-15 07:46 42.53231 4.95469 38034 ft 394 kts 28°
2026-04-15 07:46 42.55695 4.97059 37598 ft 391 kts 15°
2026-04-15 07:47 42.58335 4.97843 37023 ft 387 kts
2026-04-15 07:47 42.61020 4.97882 36301 ft 390 kts 355°
2026-04-15 07:47 42.63681 4.97141 35716 ft 391 kts 349°
2026-04-15 07:47 42.66313 4.96195 35038 ft 393 kts 348°
2026-04-15 07:48 42.68949 4.95187 34468 ft 392 kts 348°
2026-04-15 07:48 42.71557 4.94178 34004 ft 388 kts 348°
2026-04-15 07:48 42.74149 4.93186 33469 ft 385 kts 348°
2026-04-15 07:48 42.76716 4.92216 33013 ft 381 kts 348°
2026-04-15 07:49 42.79258 4.91266 32559 ft 377 kts 348°
2026-04-15 07:49 42.81770 4.90333 32118 ft 373 kts 348°
2026-04-15 07:49 42.84260 4.89412 31674 ft 369 kts 348°
2026-04-15 07:49 42.86731 4.88499 31249 ft 366 kts 348°
2026-04-15 07:50 42.89177 4.87595 30816 ft 363 kts 348°
2026-04-15 07:50 42.91611 4.86694 30393 ft 361 kts 348°
2026-04-15 07:50 42.94024 4.85801 29939 ft 358 kts 348°
2026-04-15 07:50 42.96415 4.84915 29465 ft 355 kts 348°
2026-04-15 07:51 42.98785 4.84036 29028 ft 351 kts 348°
2026-04-15 07:51 43.01128 4.83165 28593 ft 347 kts 348°
2026-04-15 07:51 43.03449 4.82303 28152 ft 345 kts 348°
2026-04-15 07:51 43.05756 4.81444 27732 ft 342 kts 348°
2026-04-15 07:52 43.08046 4.80592 27308 ft 340 kts 348°
2026-04-15 07:52 43.10327 4.79742 26892 ft 340 kts 348°
2026-04-15 07:52 43.12640 4.78881 26484 ft 350 kts 348°
2026-04-15 07:52 43.15029 4.77992 26046 ft 359 kts 348°
2026-04-15 07:53 43.17434 4.77090 25596 ft 357 kts 348°
2026-04-15 07:53 43.19825 4.76193 25159 ft 355 kts 348°
2026-04-15 07:53 43.22200 4.75304 24714 ft 353 kts 348°
2026-04-15 07:53 43.24565 4.74421 24265 ft 352 kts 347°
2026-04-15 07:54 43.26814 4.73070 23805 ft 358 kts 332°
2026-04-15 07:54 43.28782 4.70943 23153 ft 366 kts 321°
2026-04-15 07:54 43.30350 4.68143 22644 ft 371 kts 306°
2026-04-15 07:54 43.31585 4.65081 22184 ft 362 kts 304°
2026-04-15 07:55 43.32731 4.62052 21769 ft 352 kts 303°
2026-04-15 07:55 43.33850 4.59123 21393 ft 342 kts 304°
2026-04-15 07:55 43.36049 4.53536 20655 ft 324 kts 305°
2026-04-15 07:56 43.37117 4.50858 20309 ft 315 kts 307°
2026-04-15 07:56 43.38490 4.48659 19977 ft 295 kts 329°
2026-04-15 07:56 43.40235 4.47346 19631 ft 281 kts 346°
2026-04-15 07:56 43.42106 4.46814 19304 ft 271 kts 356°
2026-04-15 07:57 43.43963 4.46606 18983 ft 265 kts
2026-04-15 07:57 43.45778 4.46851 18678 ft 261 kts 13°
2026-04-15 07:57 43.47506 4.47571 18366 ft 259 kts 24°
2026-04-15 07:57 43.49087 4.48739 18049 ft 256 kts 34°
2026-04-15 07:58 43.50382 4.50365 17797 ft 260 kts 55°
2026-04-15 07:58 43.51111 4.52686 17675 ft 269 kts 70°
2026-04-15 07:58 43.51617 4.55200 17564 ft 274 kts 72°
2026-04-15 07:58 43.51877 4.57828 17263 ft 283 kts 92°
2026-04-15 07:59 43.51265 4.60416 17010 ft 290 kts 119°
2026-04-15 07:59 43.49854 4.62402 16753 ft 295 kts 146°
2026-04-15 07:59 43.47932 4.63428 16518 ft 300 kts 165°
2026-04-15 07:59 43.45885 4.64002 16273 ft 300 kts 168°
2026-04-15 08:00 43.43842 4.64505 16026 ft 297 kts 168°
2026-04-15 08:00 43.41809 4.64994 15585 ft 297 kts 168°
2026-04-15 08:00 43.39779 4.65474 15181 ft 294 kts 168°
2026-04-15 08:00 43.37770 4.65952 14780 ft 293 kts 168°
2026-04-15 08:01 43.35778 4.66429 14449 ft 289 kts 169°
2026-04-15 08:01 43.33796 4.66908 14009 ft 290 kts 168°
2026-04-15 08:01 43.31836 4.67385 13530 ft 281 kts 169°
2026-04-15 08:01 43.29929 4.67857 12916 ft 277 kts 168°
2026-04-15 08:02 43.28027 4.68338 12175 ft 278 kts 169°
2026-04-15 08:02 43.26146 4.68820 11617 ft 271 kts 169°
2026-04-15 08:02 43.24302 4.69301 11003 ft 269 kts 169°
2026-04-15 08:02 43.22491 4.69759 10429 ft 266 kts 176°
2026-04-15 08:03 43.20720 4.69289 10029 ft 257 kts 214°
2026-04-15 08:03 43.19575 4.67525 9730 ft 248 kts 249°
2026-04-15 08:03 43.19136 4.65257 9495 ft 251 kts 268°
2026-04-15 08:03 43.19304 4.62961 9228 ft 238 kts 290°
2026-04-15 08:04 43.20108 4.61008 8947 ft 231 kts 312°
2026-04-15 08:04 43.21320 4.59623 8703 ft 232 kts 333°
2026-04-15 08:04 43.22829 4.58815 8470 ft 235 kts 343°
2026-04-15 08:04 43.24410 4.58192 8212 ft 238 kts 345°
2026-04-15 08:05 43.26010 4.57592 7964 ft 239 kts 345°
2026-04-15 08:05 43.27620 4.56985 7704 ft 240 kts 344°
2026-04-15 08:05 43.29224 4.56372 7434 ft 238 kts 344°
2026-04-15 08:05 43.30805 4.55762 7178 ft 235 kts 343°
2026-04-15 08:06 43.32374 4.55151 6935 ft 235 kts 343°
2026-04-15 08:06 43.33948 4.54534 6691 ft 236 kts 343°
2026-04-15 08:06 43.35527 4.53913 6430 ft 237 kts 343°
2026-04-15 08:06 43.37096 4.53293 6290 ft 232 kts 342°
2026-04-15 08:07 43.38636 4.52684 6159 ft 229 kts 342°
2026-04-15 08:07 43.39650 4.52283 6100 ft 229 kts 343°
2026-04-15 08:07 43.41185 4.51676 6006 ft 230 kts 343°
2026-04-15 08:07 43.43261 4.50856 5877 ft 233 kts 342°
2026-04-15 08:08 43.44291 4.50449 5761 ft 232 kts 343°
2026-04-15 08:08 43.45854 4.49825 5533 ft 234 kts 340°
2026-04-15 08:08 43.47244 4.48749 5280 ft 226 kts 320°
2026-04-15 08:08 43.48423 4.47370 5052 ft 221 kts 318°
2026-04-15 08:09 43.49575 4.45976 4832 ft 220 kts 318°
2026-04-15 08:09 43.50726 4.44596 4607 ft 218 kts 319°
2026-04-15 08:09 43.51951 4.43408 4367 ft 215 kts 343°
2026-04-15 08:09 43.53417 4.43199 4190 ft 210 kts 358°
2026-04-15 08:10 43.54845 4.43113 3954 ft 200 kts 359°
2026-04-15 08:10 43.56186 4.43029 3737 ft 187 kts 358°
2026-04-15 08:10 43.57436 4.42947 3524 ft 174 kts 359°
2026-04-15 08:10 43.58627 4.42886 3367 ft 171 kts
2026-04-15 08:11 43.59815 4.42831 3155 ft 169 kts 359°
2026-04-15 08:11 43.60978 4.42736 2913 ft 166 kts 359°
2026-04-15 08:11 43.62094 4.42644 2733 ft 157 kts 359°
2026-04-15 08:11 43.63156 4.42565 2534 ft 148 kts 357°
2026-04-15 08:12 43.64195 4.42457 2445 ft 150 kts 359°
2026-04-15 08:12 43.65221 4.42391 2363 ft 142 kts 359°
2026-04-15 08:12 43.66179 4.42328 2088 ft 131 kts
2026-04-15 08:12 43.67129 4.42270 1805 ft 136 kts 358°
2026-04-15 08:13 43.68053 4.42195 1593 ft 134 kts
2026-04-15 08:13 43.68959 4.42149 1415 ft 127 kts 360°
2026-04-15 08:13 43.69857 4.42082 1281 ft 132 kts 358°
2026-04-15 08:13 43.70817 4.42010 1107 ft 142 kts 358°
2026-04-15 08:14 43.71791 4.41937 905 ft 137 kts 356°
2026-04-15 08:14 43.72733 4.41868 722 ft 132 kts 358°
2026-04-15 08:14 43.73647 4.41803 579 ft 132 kts 356°
2026-04-15 08:14 43.74571 4.41736 372 ft 134 kts 358°
2026-04-15 08:15 43.75480 4.41640 327 ft 123 kts 360°
2026-04-15 08:15 43.76196 4.41589 311 ft 68 kts 353°
2026-04-15 08:15 43.76431 4.41567 312 ft 22 kts 358°
2026-04-15 08:15 43.76580 4.41569 314 ft 21 kts 360°
2026-04-15 08:16 43.76723 4.41582 311 ft 20 kts 354°
2026-04-15 08:16 43.76809 4.41539 311 ft 11 kts 311°
2026-04-15 08:16 43.76823 4.41445 310 ft 10 kts 256°
2026-04-15 08:16 43.76777 4.41367 309 ft 10 kts 229°
2026-04-15 08:17 43.76721 4.41308 309 ft 10 kts 204°
2026-04-15 08:17 43.76651 4.41306 309 ft 10 kts 179°
2026-04-15 08:17 43.76583 4.41314 309 ft 10 kts 178°
2026-04-15 08:17 43.76517 4.41313 309 ft 10 kts 172°
2026-04-15 08:18 43.76451 4.41314 310 ft 9 kts 173°
2026-04-15 08:18 43.76387 4.41317 311 ft 9 kts 181°
2026-04-15 08:18 43.76324 4.41322 312 ft 9 kts 174°
2026-04-15 08:18 43.76263 4.41329 312 ft 9 kts 176°
2026-04-15 08:19 43.76204 4.41336 312 ft 8 kts 175°
2026-04-15 08:19 43.76140 4.41342 312 ft 10 kts 176°
2026-04-15 08:19 43.76074 4.41340 313 ft 9 kts 186°
2026-04-15 08:19 43.76009 4.41348 313 ft 9 kts 176°
2026-04-15 08:20 43.75945 4.41355 313 ft 9 kts 176°
2026-04-15 08:20 43.75884 4.41361 313 ft 9 kts 178°
2026-04-15 08:20 43.75823 4.41362 313 ft 9 kts 178°
2026-04-15 08:20 43.75764 4.41365 313 ft 8 kts 180°
2026-04-15 08:21 43.75725 4.41348 313 ft 5 kts 242°
2026-04-15 08:21 43.75720 4.41315 314 ft 3 kts 261°
2026-04-15 08:21 43.75705 4.41296 314 ft 3 kts 191°
2026-04-15 08:21 43.75698 4.41296 314 ft 0 kts 182°